| time (UTC) | temp F | wind direction | speed MPH | gust MPH | rain 1hr in | rain 24hr in | rain mn in | humidity % | barometer mb |
| 20260507130531 | 55 | 0 | 0.0 | 0.0 | 0.00 | 0.00 | 0.00 | 100 | 1016.5 |
| 20260507130058 | 55 | 0 | 0.0 | 0.0 | 0.00 | 0.00 | 0.00 | 100 | 1016.4 |
| 20260507125531 | 55 | 0 | 0.0 | 0.0 | 0.00 | 0.00 | 0.00 | 100 | 1016.5 |
| 20260507125032 | 55 | 0 | 0.0 | 0.0 | 0.00 | 0.00 | 0.00 | 100 | 1016.4 |
| 20260507124541 | 55 | 0 | 0.0 | 0.0 | 0.00 | 0.00 | 0.00 | 100 | 1016.4 |
| 20260507124031 | 55 | 0 | 0.0 | 1.0 | 0.00 | 0.00 | 0.00 | 100 | 1016.5 |
| 20260507123531 | 54 | 0 | 0.0 | 1.0 | 0.00 | 0.00 | 0.00 | 100 | 1016.5 |
| 20260507123035 | 54 | 0 | 0.0 | 1.0 | 0.00 | 0.00 | 0.00 | 100 | 1016.6 |
| 20260507122532 | 54 | 0 | 0.0 | 1.0 | 0.00 | 0.00 | 0.00 | 100 | 1016.6 |
| 20260507122032 | 54 | 24 | 0.0 | 3.0 | 0.00 | 0.00 | 0.00 | 100 | 1016.5 |
| 20260507121544 | 54 | 0 | 0.0 | 3.0 | 0.00 | 0.00 | 0.00 | 100 | 1016.6 |
| 20260507121032 | 54 | 54 | 0.0 | 3.0 | 0.00 | 0.00 | 0.00 | 100 | 1016.6 |
| 20260507120531 | 54 | 76 | 0.0 | 2.0 | 0.00 | 0.00 | 0.00 | 100 | 1016.7 |
| 20260507120042 | 54 | 76 | 0.0 | 2.0 | 0.00 | 0.00 | 0.00 | 100 | 1016.7 |
| 20260507115532 | 54 | 76 | 0.0 | 3.0 | 0.00 | 0.00 | 0.00 | 100 | 1016.6 |
| 20260507115032 | 54 | 0 | 0.0 | 3.0 | 0.00 | 0.00 | 0.00 | 100 | 1016.7 |
| 20260507114540 | 54 | 26 | 0.0 | 3.0 | 0.00 | 0.00 | 0.00 | 100 | 1016.6 |
| 20260507114035 | 54 | 0 | 0.0 | 3.0 | 0.00 | 0.00 | 0.00 | 100 | 1016.6 |
| 20260507113535 | 54 | 44 | 0.0 | 3.0 | 0.00 | 0.00 | 0.00 | 100 | 1016.6 |
| 20260507113049 | 54 | 39 | 0.0 | 3.0 | 0.00 | 0.00 | 0.00 | 100 | 1016.6 |
| 20260507112535 | 54 | 24 | 0.0 | 2.0 | 0.00 | 0.00 | 0.00 | 100 | 1016.7 |
| 20260507112032 | 54 | 0 | 0.0 | 3.0 | 0.00 | 0.00 | 0.00 | 100 | 1016.6 |
| 20260507111544 | 54 | 0 | 0.0 | 3.0 | 0.00 | 0.00 | 0.00 | 100 | 1016.6 |
| 20260507111031 | 54 | 29 | 1.0 | 3.0 | 0.00 | 0.00 | 0.00 | 100 | 1016.8 |
| 20260507110530 | 54 | 67 | 0.0 | 2.0 | 0.00 | 0.00 | 0.00 | 100 | 1016.8 |
| 20260507110055 | 55 | 56 | 0.0 | 2.0 | 0.00 | 0.00 | 0.00 | 100 | 1016.8 |
| 20260507105532 | 55 | 0 | 0.0 | 3.0 | 0.00 | 0.00 | 0.00 | 100 | 1016.8 |
| 20260507105031 | 55 | 0 | 0.0 | 3.0 | 0.00 | 0.00 | 0.00 | 100 | 1016.8 |
| 20260507104549 | 54 | 28 | 0.0 | 3.0 | 0.00 | 0.00 | 0.00 | 100 | 1016.9 |
| 20260507104031 | 54 | 31 | 1.0 | 3.0 | 0.00 | 0.00 | 0.00 | 100 | 1017.0 |
| 20260507103534 | 54 | 0 | 0.0 | 4.0 | 0.00 | 0.00 | 0.00 | 100 | 1017.0 |
| 20260507103115 | 54 | 360 | 1.0 | 4.0 | 0.00 | 0.00 | 0.00 | 100 | 1017.1 |
| 20260507102533 | 53 | 0 | 0.0 | 1.0 | 0.00 | 0.00 | 0.00 | 100 | 1017.1 |
| 20260507102035 | 53 | 0 | 0.0 | 2.0 | 0.00 | 0.00 | 0.00 | 100 | 1017.2 |
| 20260507101547 | 53 | 19 | 0.0 | 3.0 | 0.00 | 0.00 | 0.00 | 100 | 1017.1 |
| 20260507101034 | 53 | 24 | 0.0 | 3.0 | 0.00 | 0.00 | 0.00 | 100 | 1017.2 |
| 20260507100532 | 53 | 0 | 0.0 | 0.0 | 0.00 | 0.00 | 0.00 | 100 | 1017.1 |
| 20260507100103 | 53 | 0 | 0.0 | 0.0 | 0.00 | 0.00 | 0.00 | 100 | 1017.1 |
| 20260507095536 | 52 | 0 | 0.0 | 0.0 | 0.00 | 0.00 | 0.00 | 100 | 1016.9 |
| 20260507095034 | 52 | 0 | 0.0 | 0.0 | 0.00 | 0.00 | 0.00 | 100 | 1017.0 |
| 20260507094548 | 52 | 0 | 0.0 | 0.0 | 0.00 | 0.00 | 0.00 | 100 | 1017.0 |
| 20260507094035 | 52 | 0 | 0.0 | 1.0 | 0.00 | 0.00 | 0.00 | 100 | 1017.0 |
| 20260507093538 | 52 | 0 | 0.0 | 1.0 | 0.00 | 0.00 | 0.00 | 100 | 1016.9 |
| 20260507093043 | 52 | 0 | 0.0 | 3.0 | 0.00 | 0.00 | 0.00 | 100 | 1016.9 |
| 20260507092538 | 52 | 0 | 0.0 | 3.0 | 0.00 | 0.00 | 0.00 | 100 | 1017.0 |
| 20260507092035 | 52 | 0 | 1.0 | 3.0 | 0.00 | 0.00 | 0.00 | 100 | 1016.8 |
| 20260507091544 | 52 | 0 | 0.0 | 2.0 | 0.00 | 0.00 | 0.00 | 100 | 1016.8 |
| 20260507091035 | 52 | 0 | 0.0 | 2.0 | 0.00 | 0.00 | 0.00 | 100 | 1016.8 |
| 20260507090535 | 53 | 66 | 0.0 | 2.0 | 0.00 | 0.00 | 0.00 | 100 | 1016.8 |
| 20260507090055 | 53 | 0 | 0.0 | 2.0 | 0.00 | 0.00 | 0.00 | 100 | 1016.8 |
| 20260507085534 | 53 | 0 | 0.0 | 2.0 | 0.00 | 0.00 | 0.00 | 100 | 1016.8 |
| 20260507085035 | 53 | 0 | 0.0 | 3.0 | 0.00 | 0.00 | 0.00 | 100 | 1016.8 |
| 20260507084549 | 53 | 0 | 0.0 | 4.0 | 0.00 | 0.00 | 0.00 | 100 | 1016.9 |
| 20260507084032 | 53 | 0 | 1.0 | 4.0 | 0.00 | 0.00 | 0.00 | 100 | 1016.8 |
| 20260507083532 | 53 | 0 | 0.0 | 2.0 | 0.00 | 0.00 | 0.00 | 100 | 1016.7 |
| 20260507083045 | 53 | 0 | 0.0 | 5.0 | 0.00 | 0.00 | 0.00 | 100 | 1016.7 |
| 20260507082532 | 53 | 30 | 1.0 | 5.0 | 0.00 | 0.00 | 0.00 | 100 | 1016.8 |
| 20260507082035 | 53 | 0 | 0.0 | 2.0 | 0.00 | 0.00 | 0.00 | 100 | 1016.8 |
| 20260507081543 | 53 | 0 | 0.0 | 2.0 | 0.00 | 0.00 | 0.00 | 100 | 1016.8 |
| 20260507081032 | 53 | 9 | 0.0 | 2.0 | 0.00 | 0.00 | 0.00 | 100 | 1016.7 |
| 20260507080536 | 53 | 0 | 0.0 | 3.0 | 0.00 | 0.00 | 0.00 | 100 | 1016.7 |
| 20260507080047 | 53 | 0 | 0.0 | 3.0 | 0.00 | 0.00 | 0.00 | 100 | 1016.7 |
| 20260507075534 | 52 | 0 | 0.0 | 3.0 | 0.00 | 0.00 | 0.00 | 100 | 1016.6 |
| 20260507075032 | 52 | 0 | 0.0 | 3.0 | 0.00 | 0.00 | 0.00 | 100 | 1016.6 |
| 20260507074538 | 52 | 47 | 0.0 | 3.0 | 0.00 | 0.00 | 0.00 | 100 | 1016.6 |
| 20260507074033 | 52 | 0 | 0.0 | 3.0 | 0.00 | 0.00 | 0.00 | 100 | 1016.6 |
| 20260507073536 | 52 | 37 | 1.0 | 3.0 | 0.00 | 0.00 | 0.00 | 100 | 1016.6 |
| 20260507073045 | 52 | 0 | 0.0 | 0.0 | 0.00 | 0.00 | 0.00 | 100 | 1016.6 |
| 20260507072533 | 51 | 0 | 0.0 | 0.0 | 0.00 | 0.00 | 0.00 | 100 | 1016.6 |
| 20260507072035 | 51 | 0 | 0.0 | 0.0 | 0.00 | 0.00 | 0.00 | 100 | 1016.5 |
| 20260507071545 | 50 | 0 | 0.0 | 1.0 | 0.00 | 0.00 | 0.00 | 100 | 1016.4 |
| 20260507071032 | 50 | 0 | 0.0 | 2.0 | 0.00 | 0.00 | 0.00 | 100 | 1016.5 |
| 20260507070532 | 50 | 0 | 0.0 | 2.0 | 0.00 | 0.00 | 0.00 | 100 | 1016.4 |
| 20260507070101 | 50 | 0 | 0.0 | 2.0 | 0.00 | 0.00 | 0.00 | 100 | 1016.5 |
| 20260507065533 | 50 | 0 | 0.0 | 1.0 | 0.00 | 0.00 | 0.00 | 100 | 1016.4 |
| 20260507065036 | 49 | 0 | 0.0 | 0.0 | 0.00 | 0.00 | 0.00 | 100 | 1016.4 |
| 20260507064549 | 49 | 0 | 0.0 | 0.0 | 0.00 | 0.00 | 0.00 | 100 | 1016.5 |
| 20260507064035 | 49 | 0 | 0.0 | 0.0 | 0.00 | 0.00 | 0.00 | 100 | 1016.4 |
| 20260507063533 | 49 | 0 | 0.0 | 0.0 | 0.00 | 0.00 | 0.00 | 100 | 1016.4 |
| 20260507063044 | 49 | 0 | 0.0 | 0.0 | 0.00 | 0.00 | 0.00 | 100 | 1016.4 |
| 20260507062533 | 48 | 0 | 0.0 | 0.0 | 0.00 | 0.00 | 0.00 | 100 | 1016.4 |
| 20260507062033 | 48 | 0 | 0.0 | 0.0 | 0.00 | 0.00 | 0.00 | 100 | 1016.3 |
| 20260507061545 | 48 | 0 | 0.0 | 0.0 | 0.00 | 0.00 | 0.00 | 100 | 1016.3 |
| 20260507061033 | 48 | 0 | 0.0 | 1.0 | 0.00 | 0.00 | 0.00 | 100 | 1016.3 |
| 20260507060532 | 48 | 0 | 0.0 | 1.0 | 0.00 | 0.00 | 0.00 | 100 | 1016.3 |
| 20260507060044 | 48 | 0 | 0.0 | 1.0 | 0.00 | 0.00 | 0.00 | 100 | 1016.3 |
| 20260507055535 | 48 | 0 | 0.0 | 3.0 | 0.00 | 0.00 | 0.00 | 100 | 1016.2 |
| 20260507055033 | 48 | 0 | 0.0 | 4.0 | 0.00 | 0.00 | 0.00 | 100 | 1016.2 |
| 20260507054605 | 48 | 0 | 0.0 | 4.0 | 0.00 | 0.00 | 0.00 | 100 | 1016.1 |
| 20260507054035 | 47 | 49 | 0.0 | 4.0 | 0.00 | 0.00 | 0.00 | 100 | 1016.1 |
| 20260507053532 | 47 | 0 | 0.0 | 1.0 | 0.00 | 0.00 | 0.00 | 100 | 1016.1 |
| 20260507053102 | 47 | 0 | 0.0 | 1.0 | 0.00 | 0.00 | 0.00 | 100 | 1016.0 |
| 20260507052533 | 47 | 0 | 0.0 | 1.0 | 0.00 | 0.00 | 0.00 | 100 | 1015.9 |
| 20260507052035 | 47 | 0 | 0.0 | 0.0 | 0.00 | 0.00 | 0.00 | 100 | 1015.9 |
| 20260507051543 | 47 | 0 | 0.0 | 0.0 | 0.00 | 0.00 | 0.00 | 100 | 1016.0 |
| 20260507051033 | 47 | 0 | 0.0 | 0.0 | 0.00 | 0.00 | 0.00 | 100 | 1016.0 |
| 20260507050535 | 47 | 0 | 0.0 | 0.0 | 0.00 | 0.00 | 0.00 | 100 | 1016.0 |
| 20260507050050 | 47 | 0 | 0.0 | 0.0 | 0.00 | 0.00 | 0.00 | 100 | 1015.9 |
| 20260507045533 | 47 | 0 | 0.0 | 0.0 | 0.00 | 0.00 | 0.00 | 100 | 1015.9 |
| 20260507045033 | 47 | 0 | 0.0 | 0.0 | 0.00 | 0.00 | 0.00 | 100 | 1015.9 |
| 20260507044552 | 47 | 0 | 0.0 | 0.0 | 0.00 | 0.00 | 0.00 | 100 | 1016.0 |
| 20260507044035 | 47 | 0 | 0.0 | 0.0 | 0.00 | 0.00 | 0.00 | 100 | 1015.8 |
| 20260507043535 | 47 | 0 | 0.0 | 0.0 | 0.00 | 0.00 | 0.00 | 100 | 1015.7 |
| 20260507043042 | 47 | 0 | 0.0 | 0.0 | 0.00 | 0.00 | 0.00 | 100 | 1015.8 |
| 20260507042536 | 47 | 0 | 0.0 | 0.0 | 0.00 | 0.00 | 0.00 | 100 | 1015.8 |
| 20260507042032 | 47 | 0 | 0.0 | 0.0 | 0.00 | 0.00 | 0.00 | 100 | 1015.8 |
| 20260507041555 | 47 | 0 | 0.0 | 0.0 | 0.00 | 0.00 | 0.00 | 100 | 1015.8 |
| 20260507041033 | 47 | 0 | 0.0 | 0.0 | 0.00 | 0.00 | 0.00 | 100 | 1015.8 |
| 20260507040532 | 47 | 0 | 0.0 | 0.0 | 0.00 | 0.00 | 0.00 | 100 | 1015.8 |
| 20260507040042 | 47 | 0 | 0.0 | 0.0 | 0.00 | 0.00 | 0.00 | 100 | 1015.8 |
| 20260507035532 | 47 | 0 | 0.0 | 0.0 | 0.00 | 0.00 | 0.00 | 100 | 1015.7 |
| 20260507035034 | 47 | 0 | 0.0 | 0.0 | 0.00 | 0.00 | 0.00 | 100 | 1015.7 |
| 20260507034544 | 47 | 0 | 0.0 | 0.0 | 0.00 | 0.00 | 0.00 | 100 | 1015.7 |
| 20260507034033 | 47 | 0 | 0.0 | 0.0 | 0.00 | 0.00 | 0.00 | 100 | 1015.6 |
| 20260507033534 | 47 | 0 | 0.0 | 0.0 | 0.00 | 0.00 | 0.00 | 100 | 1015.7 |
| 20260507033043 | 47 | 0 | 0.0 | 0.0 | 0.00 | 0.00 | 0.00 | 100 | 1015.6 |
| 20260507032535 | 47 | 0 | 0.0 | 0.0 | 0.00 | 0.00 | 0.00 | 100 | 1015.6 |
| 20260507032032 | 46 | 0 | 0.0 | 0.0 | 0.00 | 0.00 | 0.00 | 100 | 1015.6 |
| 20260507031543 | 46 | 0 | 0.0 | 0.0 | 0.00 | 0.00 | 0.00 | 100 | 1015.6 |
| 20260507031032 | 46 | 0 | 0.0 | 0.0 | 0.00 | 0.00 | 0.00 | 100 | 1015.6 |
| 20260507030534 | 46 | 0 | 0.0 | 0.0 | 0.00 | 0.00 | 0.00 | 100 | 1015.6 |
| 20260507030043 | 46 | 0 | 0.0 | 0.0 | 0.00 | 0.00 | 0.00 | 100 | 1015.7 |
| 20260507025532 | 46 | 0 | 0.0 | 0.0 | 0.00 | 0.00 | 0.00 | 100 | 1015.6 |
| 20260507025035 | 46 | 0 | 0.0 | 0.0 | 0.00 | 0.00 | 0.00 | 100 | 1015.5 |
| 20260507024541 | 46 | 0 | 0.0 | 0.0 | 0.00 | 0.00 | 0.00 | 100 | 1015.6 |
| 20260507024035 | 46 | 0 | 0.0 | 0.0 | 0.00 | 0.00 | 0.00 | 100 | 1015.6 |
| 20260507023535 | 46 | 0 | 0.0 | 0.0 | 0.00 | 0.00 | 0.00 | 100 | 1015.6 |
| 20260507023041 | 46 | 0 | 0.0 | 0.0 | 0.00 | 0.00 | 0.00 | 100 | 1015.5 |
| 20260507022532 | 46 | 0 | 0.0 | 0.0 | 0.00 | 0.00 | 0.00 | 100 | 1015.5 |
| 20260507022035 | 46 | 0 | 0.0 | 0.0 | 0.00 | 0.00 | 0.00 | 100 | 1015.5 |
| 20260507021541 | 47 | 0 | 0.0 | 0.0 | 0.00 | 0.00 | 0.00 | 100 | 1015.5 |
| 20260507021033 | 47 | 0 | 0.0 | 0.0 | 0.00 | 0.00 | 0.00 | 100 | 1015.5 |
| 20260507020535 | 47 | 0 | 0.0 | 0.0 | 0.00 | 0.00 | 0.00 | 100 | 1015.4 |
| 20260507020059 | 47 | 0 | 0.0 | 0.0 | 0.00 | 0.00 | 0.00 | 100 | 1015.4 |
| 20260507015535 | 47 | 0 | 0.0 | 0.0 | 0.00 | 0.00 | 0.00 | 100 | 1015.3 |
| 20260507015036 | 47 | 0 | 0.0 | 0.0 | 0.00 | 0.00 | 0.00 | 100 | 1015.4 |
| 20260507014616 | 47 | 0 | 0.0 | 0.0 | 0.00 | 0.00 | 0.00 | 100 | 1015.3 |
| 20260507014035 | 47 | 0 | 0.0 | 0.0 | 0.00 | 0.00 | 0.00 | 100 | 1015.3 |
| 20260507013532 | 47 | 0 | 0.0 | 0.0 | 0.00 | 0.00 | 0.00 | 100 | 1015.2 |
| 20260507013047 | 47 | 0 | 0.0 | 0.0 | 0.00 | 0.00 | 0.00 | 100 | 1015.3 |
| 20260507012533 | 47 | 0 | 0.0 | 0.0 | 0.00 | 0.00 | 0.00 | 100 | 1015.2 |
| 20260507012033 | 48 | 0 | 0.0 | 0.0 | 0.00 | 0.00 | 0.00 | 100 | 1015.2 |
| 20260507011554 | 48 | 0 | 0.0 | 0.0 | 0.00 | 0.00 | 0.00 | 100 | 1015.2 |
| 20260507011034 | 48 | 0 | 0.0 | 0.0 | 0.00 | 0.00 | 0.00 | 100 | 1015.2 |
| 20260507010531 | 48 | 0 | 0.0 | 0.0 | 0.00 | 0.00 | 0.00 | 100 | 1015.2 |
| 20260507010046 | 48 | 0 | 0.0 | 0.0 | 0.00 | 0.00 | 0.00 | 100 | 1015.2 |
| 20260507005536 | 48 | 0 | 0.0 | 0.0 | 0.00 | 0.00 | 0.00 | 100 | 1015.2 |
| 20260507005032 | 48 | 0 | 0.0 | 0.0 | 0.00 | 0.00 | 0.00 | 100 | 1015.3 |
| 20260507004544 | 48 | 0 | 0.0 | 0.0 | 0.00 | 0.00 | 0.00 | 100 | 1015.2 |
| 20260507004035 | 48 | 0 | 0.0 | 0.0 | 0.00 | 0.00 | 0.00 | 100 | 1015.2 |
| 20260507003531 | 49 | 0 | 0.0 | 0.0 | 0.00 | 0.00 | 0.00 | 100 | 1015.2 |
| 20260507003043 | 49 | 0 | 0.0 | 0.0 | 0.00 | 0.00 | 0.00 | 100 | 1015.3 |
| 20260507002533 | 49 | 0 | 0.0 | 0.0 | 0.00 | 0.00 | 0.00 | 100 | 1015.3 |
| 20260507002033 | 49 | 0 | 0.0 | 0.0 | 0.00 | 0.00 | 0.00 | 100 | 1015.3 |
| 20260507001558 | 49 | 0 | 0.0 | 0.0 | 0.00 | 0.00 | 0.00 | 100 | 1015.4 |
| 20260507001038 | 49 | 0 | 0.0 | 0.0 | 0.00 | 0.00 | 0.00 | 100 | 1015.3 |
| 20260507000533 | 49 | 0 | 0.0 | 1.0 | 0.00 | 0.00 | 0.00 | 100 | 1015.4 |
| 20260507000054 | 49 | 0 | 0.0 | 3.0 | 0.00 | 0.00 | 0.00 | 100 | 1015.4 |
| 20260506235535 | 49 | 0 | 0.0 | 3.0 | 0.00 | 0.00 | 0.00 | 100 | 1015.5 |
| 20260506235032 | 49 | 0 | 0.0 | 3.0 | 0.00 | 0.00 | 0.00 | 100 | 1015.3 |
| 20260506234554 | 49 | 0 | 0.0 | 3.0 | 0.00 | 0.00 | 0.00 | 100 | 1015.3 |
| 20260506234031 | 49 | 32 | 0.0 | 2.0 | 0.00 | 0.00 | 0.00 | 100 | 1015.3 |
| 20260506233532 | 49 | 0 | 0.0 | 3.0 | 0.00 | 0.00 | 0.00 | 100 | 1015.2 |
| 20260506233048 | 49 | 0 | 0.0 | 3.0 | 0.00 | 0.00 | 0.00 | 100 | 1015.3 |
| 20260506232534 | 49 | 0 | 1.0 | 4.0 | 0.00 | 0.00 | 0.00 | 100 | 1015.2 |
| 20260506232035 | 49 | 22 | 1.0 | 4.0 | 0.00 | 0.00 | 0.00 | 100 | 1015.3 |
| 20260506231544 | 49 | 27 | 1.0 | 4.0 | 0.00 | 0.00 | 0.00 | 100 | 1015.1 |
| 20260506231034 | 49 | 51 | 0.0 | 1.0 | 0.00 | 0.00 | 0.00 | 100 | 1015.2 |
| 20260506230531 | 49 | 0 | 0.0 | 0.0 | 0.00 | 0.00 | 0.00 | 100 | 1015.1 |
| 20260506230052 | 49 | 0 | 0.0 | 0.0 | 0.00 | 0.00 | 0.00 | 100 | 1015.2 |
| 20260506225536 | 49 | 0 | 0.0 | 0.0 | 0.00 | 0.00 | 0.00 | 100 | 1015.2 |
| 20260506225031 | 50 | 0 | 0.0 | 0.0 | 0.00 | 0.00 | 0.00 | 100 | 1015.1 |
| 20260506224540 | 50 | 0 | 0.0 | 0.0 | 0.00 | 0.00 | 0.00 | 100 | 1015.2 |
| 20260506224035 | 50 | 0 | 0.0 | 0.0 | 0.00 | 0.00 | 0.00 | 100 | 1015.2 |
| 20260506223535 | 50 | 0 | 0.0 | 0.0 | 0.00 | 0.00 | 0.00 | 100 | 1015.3 |
| 20260506223042 | 49 | 0 | 0.0 | 0.0 | 0.00 | 0.00 | 0.00 | 100 | 1015.3 |
| 20260506222536 | 49 | 0 | 0.0 | 0.0 | 0.00 | 0.00 | 0.00 | 100 | 1015.1 |
| 20260506222033 | 49 | 0 | 0.0 | 0.0 | 0.00 | 0.00 | 0.00 | 100 | 1015.1 |
| 20260506221556 | 49 | 0 | 0.0 | 0.0 | 0.00 | 0.00 | 0.00 | 100 | 1015.1 |
| 20260506221036 | 49 | 0 | 0.0 | 0.0 | 0.00 | 0.00 | 0.00 | 100 | 1015.0 |
| 20260506220532 | 49 | 0 | 0.0 | 0.0 | 0.00 | 0.00 | 0.00 | 100 | 1015.1 |
| 20260506220049 | 49 | 0 | 0.0 | 0.0 | 0.00 | 0.00 | 0.00 | 100 | 1015.0 |
| 20260506215534 | 49 | 0 | 0.0 | 0.0 | 0.00 | 0.00 | 0.00 | 100 | 1015.0 |
| 20260506215033 | 49 | 0 | 0.0 | 0.0 | 0.00 | 0.00 | 0.00 | 100 | 1014.9 |
| 20260506214541 | 49 | 0 | 0.0 | 0.0 | 0.00 | 0.00 | 0.00 | 100 | 1014.9 |
| 20260506214036 | 49 | 0 | 0.0 | 0.0 | 0.00 | 0.00 | 0.00 | 100 | 1015.0 |
| 20260506213539 | 49 | 0 | 0.0 | 0.0 | 0.00 | 0.00 | 0.00 | 100 | 1015.0 |
| 20260506213048 | 49 | 0 | 0.0 | 0.0 | 0.00 | 0.00 | 0.00 | 100 | 1014.9 |
| 20260506212532 | 49 | 0 | 0.0 | 0.0 | 0.00 | 0.00 | 0.00 | 100 | 1014.9 |
| 20260506212039 | 49 | 0 | 0.0 | 0.0 | 0.00 | 0.00 | 0.00 | 100 | 1014.7 |
| 20260506211552 | 49 | 0 | 0.0 | 0.0 | 0.00 | 0.00 | 0.00 | 100 | 1014.8 |
| 20260506211035 | 50 | 0 | 0.0 | 0.0 | 0.00 | 0.00 | 0.00 | 100 | 1014.8 |
| 20260506210531 | 50 | 0 | 0.0 | 0.0 | 0.00 | 0.00 | 0.00 | 100 | 1014.7 |
| 20260506210045 | 50 | 0 | 0.0 | 0.0 | 0.00 | 0.00 | 0.00 | 100 | 1014.7 |
| 20260506205534 | 50 | 0 | 0.0 | 0.0 | 0.00 | 0.00 | 0.00 | 100 | 1014.7 |
| 20260506205032 | 50 | 0 | 0.0 | 0.0 | 0.00 | 0.00 | 0.00 | 100 | 1014.7 |
| 20260506204556 | 50 | 0 | 0.0 | 0.0 | 0.00 | 0.00 | 0.00 | 100 | 1014.8 |
| 20260506204031 | 50 | 0 | 0.0 | 0.0 | 0.00 | 0.00 | 0.00 | 100 | 1014.7 |
| 20260506203536 | 50 | 0 | 0.0 | 0.0 | 0.00 | 0.00 | 0.00 | 100 | 1014.7 |
| 20260506203045 | 50 | 0 | 0.0 | 0.0 | 0.00 | 0.00 | 0.00 | 100 | 1014.7 |
| 20260506202533 | 50 | 0 | 0.0 | 0.0 | 0.00 | 0.00 | 0.00 | 100 | 1014.7 |
| 20260506202035 | 50 | 0 | 0.0 | 0.0 | 0.00 | 0.00 | 0.00 | 100 | 1014.6 |
| 20260506201545 | 50 | 0 | 0.0 | 0.0 | 0.00 | 0.00 | 0.00 | 100 | 1014.6 |
| 20260506201031 | 50 | 0 | 0.0 | 0.0 | 0.00 | 0.00 | 0.00 | 100 | 1014.7 |
| 20260506200534 | 50 | 0 | 0.0 | 0.0 | 0.00 | 0.00 | 0.00 | 100 | 1014.7 |
| 20260506200045 | 50 | 0 | 0.0 | 0.0 | 0.00 | 0.00 | 0.00 | 100 | 1014.6 |
| 20260506195533 | 51 | 0 | 0.0 | 0.0 | 0.00 | 0.00 | 0.00 | 100 | 1014.6 |
| 20260506195032 | 51 | 0 | 0.0 | 0.0 | 0.00 | 0.00 | 0.00 | 100 | 1014.5 |
| 20260506194544 | 51 | 0 | 0.0 | 0.0 | 0.00 | 0.00 | 0.00 | 100 | 1014.5 |
| 20260506194034 | 51 | 0 | 0.0 | 1.0 | 0.00 | 0.00 | 0.00 | 100 | 1014.5 |
| 20260506193531 | 51 | 0 | 0.0 | 1.0 | 0.00 | 0.00 | 0.00 | 100 | 1014.4 |
| 20260506193049 | 51 | 0 | 0.0 | 1.0 | 0.00 | 0.00 | 0.00 | 100 | 1014.2 |
| 20260506192532 | 51 | 0 | 0.0 | 1.0 | 0.00 | 0.00 | 0.00 | 100 | 1014.3 |
| 20260506192032 | 51 | 0 | 0.0 | 1.0 | 0.00 | 0.00 | 0.00 | 100 | 1014.3 |
| 20260506191543 | 51 | 0 | 0.0 | 1.0 | 0.00 | 0.00 | 0.00 | 100 | 1014.2 |
| 20260506191033 | 51 | 0 | 0.0 | 3.0 | 0.00 | 0.00 | 0.00 | 100 | 1014.2 |
| 20260506190531 | 51 | 0 | 0.0 | 3.0 | 0.00 | 0.00 | 0.00 | 100 | 1014.2 |
| 20260506190042 | 51 | 58 | 0.0 | 3.0 | 0.00 | 0.00 | 0.00 | 100 | 1014.0 |
| 20260506185531 | 51 | 15 | 1.0 | 4.0 | 0.00 | 0.00 | 0.00 | 100 | 1014.0 |
| 20260506185031 | 52 | 0 | 0.0 | 4.0 | 0.00 | 0.00 | 0.00 | 100 | 1014.0 |
| 20260506184541 | 52 | 0 | 0.0 | 5.0 | 0.00 | 0.00 | 0.00 | 100 | 1013.9 |
| 20260506184035 | 52 | 41 | 1.0 | 5.0 | 0.00 | 0.00 | 0.00 | 100 | 1014.0 |
| 20260506183532 | 52 | 50 | 2.0 | 5.0 | 0.00 | 0.00 | 0.00 | 100 | 1013.9 |
| 20260506183037 | 52 | 92 | 1.0 | 5.0 | 0.00 | 0.00 | 0.00 | 100 | 1013.9 |
| 20260506182532 | 52 | 58 | 2.0 | 5.0 | 0.00 | 0.00 | 0.00 | 100 | 1013.8 |
| 20260506182032 | 52 | 42 | 1.0 | 3.0 | 0.00 | 0.00 | 0.00 | 100 | 1013.8 |
| 20260506181556 | 52 | 53 | 0.0 | 5.0 | 0.00 | 0.00 | 0.00 | 100 | 1013.7 |
| 20260506181033 | 52 | 55 | 1.0 | 5.0 | 0.00 | 0.00 | 0.00 | 100 | 1013.6 |
| 20260506180532 | 52 | 53 | 2.0 | 5.0 | 0.00 | 0.00 | 0.00 | 100 | 1013.5 |
| 20260506180044 | 52 | 36 | 1.0 | 4.0 | 0.00 | 0.00 | 0.00 | 100 | 1013.5 |
| 20260506175531 | 52 | 102 | 1.0 | 8.0 | 0.00 | 0.00 | 0.00 | 100 | 1013.5 |
| 20260506175031 | 52 | 39 | 2.0 | 8.0 | 0.00 | 0.00 | 0.00 | 100 | 1013.4 |
| 20260506174542 | 53 | 5 | 2.0 | 6.0 | 0.00 | 0.00 | 0.00 | 100 | 1013.4 |
| 20260506174035 | 53 | 49 | 2.0 | 6.0 | 0.00 | 0.00 | 0.00 | 100 | 1013.3 |
| 20260506173534 | 53 | 23 | 2.0 | 6.0 | 0.00 | 0.00 | 0.00 | 100 | 1013.4 |
| 20260506173104 | 53 | 17 | 2.0 | 11.0 | 0.00 | 0.00 | 0.00 | 100 | 1013.3 |
| 20260506172535 | 53 | 61 | 4.0 | 11.0 | 0.00 | 0.00 | 0.00 | 100 | 1013.2 |
| 20260506172035 | 53 | 5 | 2.0 | 10.0 | 0.00 | 0.00 | 0.00 | 100 | 1013.2 |
| 20260506171542 | 53 | 11 | 3.0 | 10.0 | 0.00 | 0.00 | 0.00 | 100 | 1013.2 |
| 20260506171035 | 53 | 352 | 3.0 | 10.0 | 0.00 | 0.00 | 0.00 | 100 | 1013.1 |
| 20260506170535 | 53 | 37 | 2.0 | 10.0 | 0.00 | 0.00 | 0.00 | 100 | 1013.0 |
| 20260506170051 | 53 | 71 | 2.0 | 6.0 | 0.00 | 0.00 | 0.00 | 100 | 1013.1 |
| 20260506165533 | 53 | 10 | 2.0 | 6.0 | 0.00 | 0.00 | 0.00 | 100 | 1013.1 |
| 20260506165034 | 53 | 19 | 1.0 | 6.0 | 0.00 | 0.00 | 0.00 | 100 | 1013.0 |
| 20260506164543 | 53 | 48 | 1.0 | 5.0 | 0.00 | 0.00 | 0.00 | 100 | 1013.0 |
| 20260506164034 | 53 | 16 | 1.0 | 5.0 | 0.00 | 0.00 | 0.00 | 100 | 1013.0 |
| 20260506163531 | 53 | 11 | 1.0 | 5.0 | 0.00 | 0.00 | 0.00 | 100 | 1013.1 |
| 20260506163053 | 53 | 15 | 2.0 | 6.0 | 0.00 | 0.00 | 0.00 | 100 | 1013.2 |
| 20260506162537 | 53 | 5 | 2.0 | 6.0 | 0.00 | 0.00 | 0.00 | 100 | 1013.2 |
| 20260506162031 | 53 | 32 | 2.0 | 8.0 | 0.00 | 0.00 | 0.00 | 100 | 1013.2 |
| 20260506161542 | 53 | 5 | 3.0 | 8.0 | 0.00 | 0.00 | 0.00 | 100 | 1013.0 |
| 20260506161035 | 53 | 0 | 2.0 | 8.0 | 0.00 | 0.00 | 0.00 | 100 | 1013.1 |
| 20260506160532 | 53 | 39 | 2.0 | 8.0 | 0.00 | 0.00 | 0.00 | 100 | 1013.2 |
| 20260506160042 | 54 | 34 | 4.0 | 9.0 | 0.00 | 0.00 | 0.00 | 100 | 1013.2 |
| 20260506155531 | 54 | 360 | 2.0 | 12.0 | 0.00 | 0.00 | 0.00 | 100 | 1013.2 |
| 20260506155033 | 54 | 10 | 5.0 | 12.0 | 0.00 | 0.00 | 0.00 | 100 | 1013.2 |
| 20260506154606 | 54 | 360 | 3.0 | 10.0 | 0.00 | 0.00 | 0.00 | 100 | 1013.1 |
| 20260506154036 | 55 | 39 | 4.0 | 10.0 | 0.00 | 0.00 | 0.00 | 100 | 1013.2 |
| 20260506153532 | 55 | 5 | 4.0 | 10.0 | 0.00 | 0.00 | 0.00 | 100 | 1013.1 |
| 20260506153043 | 55 | 79 | 2.0 | 10.0 | 0.00 | 0.00 | 0.00 | 100 | 1013.2 |
| 20260506152532 | 55 | 22 | 3.0 | 10.0 | 0.00 | 0.00 | 0.00 | 100 | 1013.2 |
| 20260506152033 | 55 | 28 | 2.0 | 10.0 | 0.00 | 0.00 | 0.00 | 100 | 1013.1 |
| 20260506151543 | 55 | 360 | 3.0 | 10.0 | 0.00 | 0.00 | 0.00 | 100 | 1013.1 |
| 20260506151034 | 55 | 350 | 4.0 | 10.0 | 0.00 | 0.00 | 0.00 | 100 | 1013.0 |
| 20260506150535 | 55 | 336 | 3.0 | 9.0 | 0.00 | 0.00 | 0.00 | 100 | 1013.0 |
| 20260506150043 | 55 | 13 | 3.0 | 9.0 | 0.00 | 0.00 | 0.00 | 100 | 1013.2 |
| 20260506145536 | 55 | 40 | 3.0 | 9.0 | 0.00 | 0.00 | 0.00 | 100 | 1013.1 |
| 20260506145033 | 55 | 63 | 2.0 | 10.0 | 0.00 | 0.00 | 0.00 | 100 | 1013.2 |
| 20260506144553 | 55 | 61 | 3.0 | 10.0 | 0.00 | 0.00 | 0.00 | 100 | 1013.1 |
| 20260506144033 | 54 | 26 | 2.0 | 10.0 | 0.00 | 0.00 | 0.00 | 100 | 1013.0 |
| 20260506143533 | 54 | 94 | 3.0 | 10.0 | 0.00 | 0.00 | 0.00 | 100 | 1013.1 |
| 20260506143044 | 55 | 360 | 4.0 | 11.0 | 0.00 | 0.00 | 0.00 | 100 | 1013.0 |
| 20260506142533 | 55 | 0 | 3.0 | 11.0 | 0.00 | 0.00 | 0.00 | 100 | 1013.1 |
| 20260506142031 | 55 | 14 | 5.0 | 11.0 | 0.00 | 0.00 | 0.00 | 100 | 1013.1 |
| 20260506141545 | 55 | 48 | 4.0 | 10.0 | 0.00 | 0.00 | 0.00 | 100 | 1013.0 |
| 20260506141032 | 55 | 30 | 4.0 | 10.0 | 0.00 | 0.00 | 0.00 | 100 | 1013.0 |
| 20260506140532 | 55 | 30 | 3.0 | 10.0 | 0.00 | 0.00 | 0.00 | 100 | 1013.1 |
| 20260506140043 | 54 | 29 | 2.0 | 10.0 | 0.00 | 0.00 | 0.00 | 100 | 1013.1 |
| 20260506135531 | 55 | 5 | 3.0 | 10.0 | 0.00 | 0.00 | 0.00 | 100 | 1013.1 |
| 20260506135031 | 55 | 16 | 3.0 | 11.0 | 0.00 | 0.00 | 0.00 | 100 | 1013.1 |
| 20260506134543 | 54 | 36 | 4.0 | 11.0 | 0.00 | 0.00 | 0.00 | 100 | 1013.2 |
| 20260506134031 | 55 | 351 | 3.0 | 9.0 | 0.00 | 0.00 | 0.00 | 100 | 1013.0 |
| 20260506133531 | 55 | 15 | 3.0 | 8.0 | 0.00 | 0.00 | 0.00 | 100 | 1013.1 |
| 20260506133101 | 55 | 39 | 3.0 | 11.0 | 0.00 | 0.00 | 0.00 | 100 | 1013.2 |
| 20260506132532 | 55 | 88 | 4.0 | 11.0 | 0.00 | 0.00 | 0.00 | 100 | 1013.2 |
| 20260506132037 | 55 | 5 | 2.0 | 10.0 | 0.00 | 0.00 | 0.00 | 100 | 1013.1 |
| 20260506131545 | 54 | 13 | 4.0 | 11.0 | 0.00 | 0.00 | 0.00 | 100 | 1013.2 |
| 20260506131034 | 54 | 55 | 3.0 | 11.0 | 0.00 | 0.00 | 0.00 | 100 | 1013.1 |